Regional Weather Roundup
Issued by NWS San Diego, CA

Home | Current Version | Previous Version | Text Only | Print | Product List | Glossary On
Versions: 1 2 3 4 5 6 7 8 9 10 11 12 13 14 15 16 17 18 19 20 21 22 23 24 25 26 27 28 29 30 31 32 33 34 35 36 37 38 39 40 41 42 43 44 45 46 47 48 49 50
000
ASUS46 KSGX 281310
RWRSGX

SAN DIEGO HOURLY WEATHER ROUNDUP
NATIONAL WEATHER SERVICE SAN DIEGO CA
600 AM PDT MON JUL 28 2014

NOTE: "FAIR" INDICATES FEW OR NO CLOUDS BELOW 12,000 FEET WITH NO
SIGNIFICANT WEATHER AND/OR OBSTRUCTIONS TO VISIBILITY.

CAZ042-043-060-061-PZZ750-775-281400-

GREATER SAN DIEGO AREA

CITY           SKY/WX    TMP DP  RH WIND       PRES   REMARKS
LINDBERGH FLD  MOCLDY    72  66  81 CALM      30.04S
POINT LOMA       N/A     68  66  93 NE3         N/A
NATIONAL CITY    N/A     71  68  90 CALM      30.03S
CHULA VISTA      N/A     70  67  90 CALM      29.96S
IMPERIAL BEACH PTCLDY    68  66  93 CALM      30.03S
BROWN FIELD    PTCLDY    69  65  86 CALM      30.04R
MIRAMAR MCAS   PTCLDY    68  64  87 NE5       30.03S
MONTGOMERY FLD CLEAR     69  65  86 NE5       30.03F

$$

NORTH SAN DIEGO COUNTY

CITY           SKY/WX    TMP DP  RH WIND       PRES   REMARKS
CAMP PENDLETON PTCLDY    68  64  87 MISG      30.02S
OCEANSIDE AP   PTCLDY    70  66  87 CALM      30.01S
VISTA            N/A     68  65  88 CALM      30.00S
CARLSBAD       PTCLDY    70  66  87 CALM      30.02S
DEL MAR          N/A     68  67  98 CALM      30.04F
LA JOLLA SCRIP   N/A     68  67  96 CALM      30.00S
FALLBROOK        N/A     68  68  99 CALM      30.03F
ESCONDIDO        N/A     70  65  84 S2        30.04S
SAN MARCOS       N/A     68  64  86 CALM      29.99F
POWAY            N/A     67  63  86 CALM      30.03S
R. PENASQUITOS   N/A     68  66  92 CALM      30.03S

$$

EAST SAN DIEGO COUNTY

CITY           SKY/WX    TMP DP  RH WIND       PRES   REMARKS
RAMONA         PTCLDY    64  59  83 SE3       30.07R
SANTEE LAKES     N/A     68  64  87 CALM      30.03S
GILLESPIE FLD  FAIR      68  66  94 CALM      30.05S
LA MESA          N/A     69  67  93 CALM      29.96F
JAMUL            N/A     66  64  93 CALM      30.01R
DESCANSO N       N/A     65  59  78 E1        29.88R
MT. LAGUNA OBS   N/A     63  52  66 NW1       29.85S
CAMPO            N/A     63  56  78 NE5       30.09R

$$

ORANGE COUNTY AND THE LOS ANGELES BASIN

CITY           SKY/WX    TMP DP  RH WIND       PRES   REMARKS
JOHN WAYNE AP  CLOUDY    74  64  71 CALM      30.02S
LAGUNA BEACH     N/A     70  67  89 CALM      29.98S
LAKE FOREST FR   N/A     69  60  71 CALM      29.91F
SANTA ANA        N/A     70  67  89 CALM      29.98S
HUNTINGTON BCH   N/A     69  66  89 CALM      30.05S
LOS ALAMITOS   CLOUDY    70  66  87 N3        30.03F
FULLERTON      CLOUDY    72  64  76 CALM      30.02S
LONG BEACH     CLOUDY    70  65  84 NW5       30.03S
L.A. AP        CLOUDY    69  65  86 CALM      30.04S
L.A. DOWNTOWN  CLOUDY    68  63  84 CALM      30.03S

$$

THE INLAND EMPIRE

CITY           SKY/WX    TMP DP  RH WIND       PRES   REMARKS
CORONA         CLOUDY    69  64  84 CALM      30.05S
CHINO          CLOUDY    69  62  78 CALM      30.06R
ONTARIO        CLOUDY    73  49  42 CALM      30.06R
RIVERSIDE AP   CLOUDY    71  57  61 CALM      30.06R
RIV CYN CREST    N/A     73  59  61 CALM      30.04R
MORENO VALLEY    N/A     73  53  50 CALM        N/A
MARCH ARB      MOCLDY    72  51  48 NW2       30.08R
HORSETHIEF CYN   N/A     72  55  55 W3        30.03S
PERRIS           N/A     69  59  70 SE1       30.05R
MENIFEE          N/A     70  61  74 CALM      30.12S
HEMET EAST       N/A     67  58  72 CALM      30.02S
FRENCH VALLEY  PTSUNNY   68  59  73 CALM      30.07S
TEMECULA         N/A     69  65  88 CALM      30.03S

$$

SAN BERNARDINO AND RIVERSIDE COUNTY MOUNTAINS

CITY           SKY/WX    TMP DP  RH WIND       PRES   REMARKS
BIG BEAR AP    CLOUDY    54  52  94 CALM      30.38R
BIG BEAR SHEA    N/A     55  50  82 CALM      30.06R
ANGELUS OAKS     N/A     61  53  75 MISG      29.88R
PINE COVE        N/A     62  50  65 N1        29.97R

$$

SOUTHERN DESERT INCLUDING THE COACHELLA VALLEY

CITY           SKY/WX    TMP DP  RH WIND       PRES   REMARKS
PALM SPRINGS   PTCLDY    86  62  44 S3        29.96R
THERMAL        PTCLDY    88  57  34 NW8       29.89R
BLYTHE           N/A    N/A N/A N/A MISG      29.93R
IMPERIAL AP    PTCLDY    86  60  41 S3        29.90R
EL CENTRO NAS  MOCLDY    86  60  41 W3        29.90R
YUMA AZ        MOCLDY    86  61  42 S7        29.93R

$$

UPPER DESERT

CITY           SKY/WX    TMP DP  RH WIND       PRES   REMARKS
VICTORVILLE AP CLOUDY    73  61  64 CALM      30.13R
HESPERIA         N/A     73  52  46 CALM      30.05R
APPLE VALLEY     N/A     75  61  60 CALM      30.17R
GRAY BUTTE AP  NOT AVBL
PALMDALE       CLOUDY    79  33  19 S9        30.10R
LANCASTER      CLOUDY    77  35  21 W10       30.09R
EDWARDS AFB    CLOUDY    80  41  24 S8        30.07R
DAGGETT        CLOUDY    80  61  52 W7        30.05R
29 PALMS N     CLOUDY    83  56  39 W8        30.10R
NEEDLES        PTCLDY    88  55  32 CALM      29.97R

$$

REGIONAL REPORTS

CITY           SKY/WX    TMP DP  RH WIND       PRES   REMARKS
SANTA BARBARA  CLOUDY    64  61  90 S3        30.04R
SANDBERG       MOCLDY    70  34  26 SW5       30.23S
MT. WILSON       N/A    N/A N/A N/A MISG        N/A
LAS VEGAS NV   CLOUDY    81  65  58 S9        30.04R
PHOENIX AZ     MOCLDY    86  61  42 E7        30.01R
TIJUANA        CLEAR     68  63  83 NW5       30.06
ENSENADA NW      N/A     69  32  25 CALM      30.00R

$$

OFFSHORE ISLANDS

CITY           SKY/WX    TMP DP  RH WIND       PRES   REMARKS
CATALINA ARPT  CLOUDY    66  56  70 E6        30.08R
SAN NICOLAS IS CLOUDY    65  59  81 W6        30.04R

$$

MARINE AND OFFSHORE BUOY REPORTS

STATION/POSITION SKY/WX   TEMP    WIND        PRES    SWELL
                          AIR SEA DIR/SP/G            HT/PER/DIR
                          (F)     (DEG/KT/KT) (MB)    (FT/S/D)
TANNER BANKS               66 67  330/  6/  8 1017.3R   5/310/ 8
S CLEMENTE BASIN           69 71  320/  4/  4 1016.7S   3/210/14
SAN NICOLAS IS.               67                N/A     2/200/14
SO. S. ROSA ISLA           65 67  310/  8/ 10 1016.4F   3/14
W. S. BARBARA CH           63 64  320/ 10/ 12 1016.1R   3/220/14
M. S. BARBARA CH           63 63  230/  8     1016.9R
S. MONICA BASIN            67 69  270/  2/  2 1016.6R   3/180/14
S PEDRO CHANNEL               67                N/A     2/170/13
DANA POINT                    70                N/A     2/180/15
CMP PENDLETON NS              71                N/A     2/220/14
OCEANSIDE OFFSHR              71                N/A     2/190/14
TORREY PINES OTR              71                N/A     2/190/14
LA JOLLA 1                 70 71   CALM  /  2 1016.6F
MISSION BAY BUOY              71                N/A     2/190/14
SAN DIEGO BAY                 73              1017.1S
POINT LOMA SOUTH              71                N/A     2/190/14

$$



USA.gov is the U.S. government's official web portal to all federal, state and local government web resources and services.